FW2726 Weather Reports


Display with metric or nautical units.
time (UTC)temp
F
wind
direction
speed
MPH
gust
MPH
rain 1hr
in
rain 24hr
in
rain mn
in
humidity
%
barometer
mb
20260508061558 38 220 4.0 6.0 0.00 0.00 0.00 66 1007.3
20260508060100 38 222 4.0 6.0 0.00 0.00 0.00 64 1007.4
20260508054602 39 191 4.0 5.0 0.00 0.00 0.00 62 1007.4
20260508053106 39 191 4.0 7.0 0.00 0.00 0.00 63 1007.3
20260508051617 40 187 5.0 7.0 0.00 0.00 0.00 62 1007.3
20260508050116 40 174 6.0 7.0 0.00 0.00 0.00 63 1007.5
20260508044559 41 205 3.0 5.0 0.00 0.00 0.00 59 1007.5
20260508043108 42 190 4.0 7.0 0.00 0.00 0.00 57 1007.4
20260508041604 43 173 5.0 6.0 0.00 0.00 0.00 56 1007.4
20260508040114 43 173 5.0 7.0 0.00 0.00 0.00 55 1007.5
20260508034601 45 173 4.0 6.0 0.00 0.00 0.00 52 1007.4
20260508033100 47 179 5.0 6.0 0.00 0.00 0.00 50 1007.4
20260508031559 49 0 0.0 0.0 0.00 0.00 0.00 46 1007.4
20260508030100 52 0 0.0 0.0 0.00 0.00 0.00 42 1007.2
20260508024558 55 0 0.0 2.0 0.00 0.00 0.00 39 1007.1
20260508023100 59 44 3.0 6.0 0.00 0.00 0.00 37 1007.1
20260508021601 61 30 7.0 11.0 0.00 0.00 0.00 34 1006.9
20260508020103 62 27 8.0 12.0 0.00 0.00 0.00 33 1006.8
20260508014601 63 48 11.0 17.0 0.00 0.00 0.00 33 1006.7
20260508013102 64 31 14.0 20.0 0.00 0.00 0.00 33 1006.6
20260508011557 65 28 16.0 23.0 0.00 0.00 0.00 33 1006.5
20260508010100 65 23 14.0 23.0 0.00 0.00 0.00 32 1006.2
20260508004602 66 33 14.0 25.0 0.00 0.00 0.00 32 1006.0
20260508003058 67 12 15.0 28.0 0.00 0.00 0.00 31 1005.9
20260508001600 67 13 17.0 28.0 0.00 0.00 0.00 32 1005.7
20260507234603 66 25 13.0 21.0 0.00 0.00 0.00 34 1005.3
20260507233117 67 16 14.0 22.0 0.00 0.00 0.00 35 1005.2
20260507231605 66 31 11.0 19.0 0.00 0.00 0.00 36 1005.0
20260507230058 70 4 16.0 22.0 0.00 0.00 0.00 32 1004.8
20260507224559 69 29 15.0 24.0 0.00 0.00 0.00 33 1004.5
20260507223113 68 12 14.0 21.0 0.00 0.00 0.00 32 1004.5
20260507221558 69 359 12.0 19.0 0.00 0.00 0.00 33 1004.3
20260507220058 69 340 9.0 15.0 0.00 0.00 0.00 34 1004.3
20260507214604 70 51 13.0 20.0 0.00 0.00 0.00 35 1004.3
20260507213058 70 9 15.0 23.0 0.00 0.00 0.00 33 1004.3
20260507211603 70 48 10.0 16.0 0.00 0.00 0.00 36 1004.2
20260507210114 68 11 14.0 21.0 0.00 0.00 0.00 37 1004.2
20260507204559 69 359 9.0 23.0 0.00 0.00 0.00 35 1004.0
20260507203059 68 4 16.0 24.0 0.00 0.00 0.00 34 1004.2
20260507201600 67 319 14.0 23.0 0.00 0.00 0.00 37 1004.0
20260507200105 67 359 13.0 22.0 0.00 0.00 0.00 36 1004.1
20260507194602 67 9 10.0 22.0 0.00 0.00 0.00 37 1004.0
20260507193059 66 326 11.0 16.0 0.00 0.00 0.00 36 1004.0
20260507191605 66 351 13.0 19.0 0.00 0.00 0.00 38 1004.3
20260507190113 66 265 7.0 15.0 0.00 0.00 0.00 37 1004.3
20260507184557 64 275 7.0 14.0 0.00 0.00 0.00 38 1004.5
20260507183116 64 258 8.0 17.0 0.00 0.00 0.00 37 1004.5
20260507181601 63 247 10.0 16.0 0.00 0.00 0.00 40 1004.7
20260507180106 62 262 9.0 16.0 0.00 0.00 0.00 39 1004.9
20260507174605 60 259 10.0 16.0 0.00 0.00 0.00 41 1005.3
20260507173115 58 251 8.0 14.0 0.00 0.00 0.00 38 1005.6
20260507171559 56 224 10.0 15.0 0.00 0.00 0.00 38 1005.7
20260507170100 55 264 10.0 18.0 0.00 0.00 0.00 38 1005.8
20260507164633 54 239 11.0 16.0 0.00 0.00 0.00 41 1005.9
20260507163101 53 229 13.0 17.0 0.00 0.00 0.00 43 1006.1
20260507161603 50 240 11.0 15.0 0.00 0.00 0.00 47 1006.1
20260507160105 49 243 11.0 15.0 0.00 0.00 0.00 48 1006.3
20260507154600 48 254 10.0 16.0 0.00 0.00 0.00 46 1006.5
20260507153059 47 236 12.0 17.0 0.00 0.00 0.00 43 1006.6
20260507151600 46 230 13.0 19.0 0.00 0.00 0.00 43 1006.7
20260507150059 45 210 11.0 17.0 0.00 0.00 0.00 45 1006.7
20260507144603 44 214 10.0 16.0 0.00 0.00 0.00 45 1006.9
20260507143119 42 217 10.0 15.0 0.00 0.00 0.00 50 1006.8
20260507141601 41 225 9.0 13.0 0.00 0.00 0.00 51 1007.1
20260507140059 41 230 11.0 15.0 0.00 0.00 0.00 50 1007.3
20260507134600 41 212 11.0 17.0 0.00 0.00 0.00 49 1007.1
20260507133101 40 225 11.0 16.0 0.00 0.00 0.00 48 1007.3
20260507131607 40 238 11.0 15.0 0.00 0.00 0.00 49 1007.5
20260507130059 39 211 11.0 15.0 0.00 0.00 0.00 48 1007.4
20260507124605 38 216 10.0 14.0 0.00 0.00 0.00 49 1007.4
20260507123102 38 218 9.0 15.0 0.00 0.00 0.00 49 1007.4
20260507121613 37 212 9.0 15.0 0.00 0.00 0.00 49 1007.6
20260507120059 37 207 10.0 14.0 0.00 0.00 0.00 48 1007.6
20260507114610 37 196 10.0 14.0 0.00 0.00 0.00 48 1007.6
20260507113129 37 215 10.0 16.0 0.00 0.00 0.00 49 1007.7
20260507111601 37 210 11.0 15.0 0.00 0.00 0.00 49 1007.7
20260507110109 36 199 10.0 15.0 0.00 0.00 0.00 50 1007.9
20260507104600 36 213 9.0 14.0 0.00 0.00 0.00 50 1008.1
20260507103100 36 192 8.0 12.0 0.00 0.00 0.00 49 1008.2
20260507101600 36 214 9.0 12.0 0.00 0.00 0.00 49 1008.4
20260507100115 36 202 9.0 13.0 0.00 0.00 0.00 48 1008.3
20260507094610 37 202 9.0 14.0 0.00 0.00 0.00 47 1008.5
20260507093059 37 210 9.0 13.0 0.00 0.00 0.00 47 1008.6
20260507091635 36 185 9.0 12.0 0.00 0.00 0.00 49 1008.5
20260507090100 35 183 9.0 11.0 0.00 0.00 0.00 51 1008.5
20260507084611 34 196 8.0 10.0 0.00 0.00 0.00 53 1008.6
20260507083101 33 197 8.0 12.0 0.00 0.00 0.00 54 1008.6
20260507081602 33 184 8.0 12.0 0.00 0.00 0.00 54 1008.7
20260507074604 34 189 9.0 12.0 0.00 0.00 0.00 53 1008.7
20260507073104 34 197 8.0 12.0 0.00 0.00 0.00 53 1008.6
20260507071559 33 185 9.0 11.0 0.00 0.00 0.00 53 1008.7
20260507070105 33 179 6.0 8.0 0.00 0.00 0.00 53 1008.7
20260507064600 33 177 7.0 10.0 0.00 0.00 0.00 53 1008.8
20260507063059 34 165 8.0 11.0 0.00 0.00 0.00 53 1008.7